RH
69 67 62 64 60 35 33 56 60 58 50 41 29 24 26 30 34 33 32 28 32 42 38 34 34 26 23 23 23 23 22 20 20
52 61 70 69 73 57 35 34 39 42 36 37 35 31 22 22 22 23 27 28 26 31 30 33 33 27 24 21 23 24 20 24 22
35 46 59 76 80 73 51 38 30 28 25 28 37 32 27 27 27 25 23 24 25 24 24 27 27 26 27 28 29 29 29 26 24
41 46 55 73 85 85 76 58 43 34 31 30 32 28 27 31 30 27 27 27 29 35 38 39 40 37 32 32 29 31 27 26 24
52 48 52 64 79 89 93 84 66 58 52 44 37 28 25 29 30 31 32 40 41 39 30 23 33 40 35 34 32 33 30 27 28
62 62 55 60 68 83 89 92 83 66 68 57 49 36 24 28 34 39 35 44 38 35 28 26 30 31 30 28 25 29 28 31 31
73 72 78 70 64 72 83 82 80 81 68 59 54 43 34 34 39 37 42 47 40 38 32 42 41 30 25 23 30 26 30 29 25
83 83 79 83 84 77 80 79 68 61 65 70 61 54 44 41 38 35 36 50 44 49 37 26 20 19 19 22 25 25 23 23 22
89 89 88 89 89 96 92 87 76 61 51 60 58 60 61 53 40 35 33 44 50 52 47 40 30 26 21 23 22 22 22 22 22
79 88 95 94 95 95 98 95 92 76 60 53 48 51 55 59 54 37 33 42 55 57 53 48 39 34 32 30 27 21 23 23 23
39 66 87 95 98 98 94 87 84 72 64 59 52 45 44 50 54 54 47 40 48 64 58 54 50 43 40 38 34 30 24 23 20
14 21 36 63 82 75 83 83 89 88 75 71 74 65 61 52 44 44 54 59 56 63 64 57 52 50 48 42 39 37 29 20 16
18 17 17 25 41 52 56 62 75 81 72 73 79 83 77 69 65 46 40 50 59 65 66 60 52 53 52 45 45 41 31 22 18
26 25 25 31 37 51 52 56 55 56 59 75 79 84 88 89 86 82 68 54 48 50 53 59 52 55 54 50 48 40 32 26 22
26 28 29 33 36 44 42 46 59 60 66 72 76 81 91 92 91 85 87 83 71 51 50 48 62 64 57 49 47 42 38 35 32
25 29 29 34 35 40 54 65 50 72 82 93 78 83 98 92 88 86 92 92 91 84 73 71 75 69 62 53 49 46 41 39 35
28 28 31 34 36 37 41 39 74 68 63 68 72 82 93 95 86 84 89 93 94 93 88 92 91 85 75 73 62 58 59 56 53
31 33 35 35 37 43 43 44 51 67 60 61 78 77 70 74 94 91 87 91 96 97 97 97 98 97 97 92 87 84 82 83 74
31 34 38 38 45 44 51 43 43 43 47 57 62 85 83 80 93 98 92 95 97 96 94 98 98 98 99 98 96 95 95 93 90
30 32 37 42 44 47 54 58 48 44 47 46 59 78 72 98 89 93 99 98 97 94 92 98 99 99 98 99 97 88 91 91 91